Weather History for Fargo, ND

Change the Weather History Date:

Monday, January 7, 2013

  Actual Average Record
Temperature  
Mean Temperature 24 °F 9 °F  
Max Temperature 35 °F 18 °F 44 °F (1963)
Min Temperature 13 °F 1 °F -39 °F (1887)
Degree Days  
Heating Degree Days 41 56  
Month to date heating degree days 366 388  
Since 1 July heating degree days 3826 3928  
Cooling Degree Days 0 0  
Month to date cooling degree days 0 0  
Year to date cooling degree days 0 0  
Moisture  
Dew Point 17 °F    
Average Humidity 72    
Maximum Humidity 84    
Minimum Humidity 59    
Precipitation  
Precipitation 0.00 in 0.03 in 0.73 in (1989)
Month to date precipitation 0.01 0.18  
Year to date precipitation 0.01 0.18  
Snow  
Snow 0.00 in 0.40 in 10.70 in (1989)
Month to date snowfall 0.1 2.8  
Since 1 July snowfall 13.6 22.6  
Snow Depth 3.00 in    
Sea Level Pressure  
Sea Level Pressure 29.85 in    
Wind  
Wind Speed 12 mph (SW)    
Max Wind Speed 24 mph    
Max Gust Speed 30 mph    
Visibility 10 miles    
Events      
T = Trace of Precipitation, MM = Missing Value Source: NWS Daily Summary

Daily Weather History Graph

Daily Weather History Graph

Search for Another Location

Airport:

Trip Planner

Search our weather history database for the weather conditions in past years. The results will help you decide how hot, cold, wet, or windy it might be!

Date:

Astronomy

Jan. 07, 2013 Rise Set
Actual Time 8:11 AM CST 4:55 PM CST
Civil Twilight 7:37 AM CST 5:30 PM CST
Nautical Twilight 6:58 AM CST 6:08 PM CST
Astronomical Twilight 6:22 AM CST 6:45 PM CST
Moon 3:32 AM CST (1/7) 1:11 PM CST (1/7)
Length of Visible Light 9h 53m
Length of Day
8h 44m
Waning Crescent, 22% of the Moon is Illuminated
Jan 7
Waning Crescent
Jan 11
New
Jan 18
First Quarter
Jan 26
Full
Feb 3
Last Quarter

Hourly Weather History & Observations

Time (CST) Temp. Windchill Dew Point Humidity Pressure Visibility Wind Dir Wind Speed Gust Speed Precip Events Conditions
12:53 AM 18.0 °F 4.8 °F 12.0 °F 78% 29.80 in 9.0 mi South 12.7 mph - N/A   Clear
1:53 AM 18.0 °F 3.6 °F 12.0 °F 78% 29.79 in 10.0 mi South 15.0 mph - N/A   Clear
2:53 AM 18.0 °F 4.2 °F 12.9 °F 81% 29.78 in 10.0 mi South 13.8 mph - N/A   Overcast
3:53 AM 19.9 °F 7.3 °F 14.0 °F 78% 29.79 in 10.0 mi South 12.7 mph - N/A   Overcast
4:53 AM 21.9 °F 9.8 °F 16.0 °F 78% 29.78 in 10.0 mi South 12.7 mph - N/A   Mostly Cloudy
5:53 AM 24.1 °F 13.1 °F 17.1 °F 75% 29.78 in 10.0 mi South 11.5 mph - N/A   Clear
6:53 AM 24.1 °F 13.7 °F 17.1 °F 75% 29.79 in 10.0 mi SSW 10.4 mph - N/A   Clear
7:53 AM 26.1 °F 16.2 °F 18.0 °F 71% 29.82 in 10.0 mi SW 10.4 mph - N/A   Clear
8:53 AM 24.1 °F 13.1 °F 17.1 °F 75% 29.83 in 10.0 mi SW 11.5 mph - N/A   Clear
9:53 AM 30.9 °F 19.1 °F 21.0 °F 67% 29.83 in 10.0 mi WSW 18.4 mph - N/A   Clear
10:53 AM 34.0 °F 22.4 °F 23.0 °F 64% 29.85 in 10.0 mi WSW 20.7 mph - N/A   Clear
11:53 AM 35.1 °F 23.5 °F 23.0 °F 61% 29.84 in 10.0 mi WSW 21.9 mph - N/A   Clear
12:53 PM 33.8 °F 22.8 °F 21.2 °F 60% 29.78 in 10.0 mi West 18.4 mph - N/A   Clear
1:53 PM 34.0 °F 24.2 °F 21.9 °F 61% 29.83 in 10.0 mi West 15.0 mph - N/A   Clear
2:53 PM 32.0 °F 23.0 °F 21.9 °F 66% 29.86 in 10.0 mi WSW 11.5 mph - N/A   Clear
3:53 PM 30.9 °F 23.5 °F 21.0 °F 67% 29.88 in 10.0 mi WSW 8.1 mph - N/A   Clear
4:53 PM 26.6 °F 17.5 °F 17.6 °F 69% 29.85 in 10.0 mi WSW 9.2 mph - N/A   Clear
5:53 PM 23.0 °F 14.7 °F 16.0 °F 74% 29.90 in 10.0 mi SW 6.9 mph - N/A   Clear
6:53 PM 25.0 °F 19.3 °F 18.0 °F 75% 29.92 in 10.0 mi SSW 4.6 mph - N/A   Clear
7:53 PM 19.0 °F 10.0 °F 12.9 °F 77% 29.94 in 10.0 mi SSW 6.9 mph - N/A   Clear
8:53 PM 18.0 °F 8.7 °F 12.9 °F 81% 29.95 in 10.0 mi SW 6.9 mph - N/A   Clear
9:53 PM 18.0 °F 8.7 °F 14.0 °F 84% 29.94 in 10.0 mi South 6.9 mph - N/A   Clear
10:53 PM 12.9 °F 3.8 °F 9.0 °F 84% 29.94 in 10.0 mi South 5.8 mph - N/A   Clear
11:53 PM 15.1 °F 3.3 °F 12.0 °F 88% 29.94 in 10.0 mi South 9.2 mph - N/A   Clear